CZ-6A DEB, 60695

Orbit data source: Space-Track

CZ-6A DEB, 60695 is space debris in LEO originally from a launch on Tue, 06 Aug 2024 UTC launched from the Taiyaun Space Center, China (TSC). Debris objects in space refer to the collection of defunct objects orbiting the Earth. Examples of debris include non-operational satellites, rocket bodies, and fragments generated from explosions, collisions, or faulty payload assembly.

Loading next visibility...
Identifier
60695, 2024-140CY
Orbit
LEO
Country
Flag of CNCN / PRC
Related business
Manufacturer
SAST
Mission
Spacecraft
Bus & Motor
Unknown
Mass
Unknown
Launch date (UTC)
2024-08-06 (2 years ago)
Launch vehicle
Unknown
Launch site
Taiyaun Space Center, China (TSC)
Object type
Payload
Rocket body
Debris
Shape & HBR
Unknown shape, 0.2 m
Radar Cross Section
Medium (>0.1 m² and <1 m²)

Expand to show TLE details & history
Last TLE update: 13 hours ago

TLE from 13 hours ago
0 CZ-6A DEB
1 60695U 24140CY  26118.44057284  .00000727  00000-0  35024-3 0  9992
2 60695  89.0291 283.1830 0057635 356.0843   3.9885 14.16914900 88562
Epoch: 2026-04-28T10:34Z
TLE epoch observation values (Epoch: 2026-04-28T10:34:25.493Z)
Latitude
-0.00012°
Longitude
-91.83907°
Altitude
797.37 km
Speed
7.476 km/s
True Right ascension
18h 52m 43s
True Declination
0° 00' 00"
Sunlit
Object was in daylight at epoch
Visualization orbit readout
Latitude
Unknown
Longitude
Unknown
Altitude
Unknown
Speed
Unknown
Apparent Right ascension
Unknown
Apparent Declination
Unknown
Sunlit
N/A
Visualization observer readout
Local Sidereal Time
07:29:45
Azimuth
Unknown
Elevation
Unknown
Doppler factor
Unknown
Orbital elements
Apogee altitude
874.321 km
Perigee altitude
791.201 km
Semi-major axis
7,210.898 km
Eccentricity
0.00576
Inclination
89.0291°
RAAN
283.183°
Arg. of periapsis
356.0843°
True anomaly
4.03477°
Mean anomaly
3.9885°
Eccentric anomaly
4.0116°
Mean motion
3.54453 °/min
Orbital period
101.56 mins
BSTAR
0.00035024
Loading maneuver chart data...
Computing Atmospheric mass density...
Loading historical data...
Loading historical data...
Loading historical data...
Loading historical data...
Loading historical data...
Loading historical data...
Loading historical data...

Documentation

Showing up to 5 results
|